Date,TemperatureHighF,TemperatureAvgF,TemperatureLowF,DewpointHighF,DewpointAvgF,DewpointLowF,HumidityHigh,HumidityAvg,HumidityLow,PressureMaxIn,PressureMinIn,WindSpeedMaxMPH,WindSpeedAvgMPH,GustSpeedMaxMPH,PrecipitationSumIn
2013-11-1,44,39,37,40,36,34,88,87,85,30.03,29.65,8,0,8,0.00
2013-11-2,42,38,35,38,35,32,89,88,85,30.03,29.85,9,0,9,0.00
2013-11-3,39,36,33,34,31,29,89,82,68,29.88,29.61,16,2,16,0.00
2013-11-4,37,34,30,32,29,27,88,84,78,29.61,29.32,17,4,17,0.00
2013-11-5,39,33,28,32,25,17,85,74,59,30.00,29.40,11,1,11,0.00
2013-11-6,30,24,19,17,14,12,79,67,52,30.09,29.96,17,3,17,0.00
2013-11-7,27,21,16,16,13,10,78,73,62,29.96,29.82,16,4,16,0.00
2013-11-8,24,16,10,18,11,5,83,80,74,30.26,29.91,6,0,6,0.00
2013-11-9,29,22,12,25,18,8,86,83,78,30.27,30.02,12,1,12,0.00
2013-11-10,35,31,28,32,28,25,88,87,86,30.03,29.77,7,0,7,0.00
2013-11-11,29,22,11,25,18,6,87,85,81,30.10,29.85,0,0,0,0.00
2013-11-12,16,10,6,11,6,1,84,81,78,30.18,30.09,0,0,0,0.00
2013-11-13,24,19,14,18,14,9,84,82,77,30.28,30.14,9,0,9,0.00
2013-11-14,31,24,10,27,20,6,87,85,82,30.14,29.92,15,0,15,0.00
2013-11-15,22,12,4,18,8,0,86,83,81,30.10,29.97,3,0,3,0.00
2013-11-16,20,12,1,13,7,-4,85,80,72,30.26,30.03,17,3,17,0.00
2013-11-17,14,6,-2,3,-1,-8,79,73,61,30.28,30.22,21,4,21,0.00
2013-11-18,4,-5,-13,-2,-11,-19,78,76,74,30.23,30.18,4,0,4,0.00
2013-11-19,-4,-11,-17,-10,-17,-23,77,75,73,30.19,30.06,0,0,0,0.00
2013-11-20,-4,-9,-16,-10,-15,-22,77,75,73,30.15,30.05,14,1,14,0.00
2013-11-21,15,0,-12,11,-6,-18,82,76,67,30.06,29.28,22,5,22,0.00
2013-11-22,32,24,14,28,19,9,86,83,77,29.51,29.12,19,3,19,0.00
2013-11-23,26,21,14,21,16,10,85,81,77,30.00,29.51,0,0,0,0.00
2013-11-24,29,27,22,25,22,19,87,85,79,30.09,30.00,10,0,10,0.00
2013-11-25,26,23,21,22,19,17,87,86,86,30.04,29.76,7,0,7,0.00
2013-11-26,29,25,21,25,22,18,87,86,85,29.91,29.82,10,0,10,0.00
2013-11-27,30,26,16,27,22,9,87,84,67,29.91,29.73,21,1,21,0.00
2013-11-28,18,8,-12,12,1,-18,78,74,67,30.04,29.72,20,0,20,0.00
2013-11-29,-7,-15,-21,-14,-20,-27,76,75,73,30.20,30.03,8,0,8,0.00
2013-11-30,3,-9,-21,-3,-14,-27,79,75,73,30.42,30.19,12,1,12,0.00